TimeCST,TemperatureF,Dew PointF,Humidity,Sea Level PressureIn,VisibilityMPH,Wind Direction,Wind SpeedMPH,Gust SpeedMPH,PrecipitationIn,Events,Conditions,WindDirDegrees,DateUTC
12:04 AM,55.4,51.8,88,30.08,2.5,NNE,3.5,-,N/A,,Overcast,30,2013-01-15 06:04:00
12:29 AM,55.4,51.8,88,30.08,1.8,North,3.5,-,N/A,,Overcast,360,2013-01-15 06:29:00
12:43 AM,55.4,51.8,88,30.08,2.0,Calm,Calm,-,N/A,,Overcast,0,2013-01-15 06:43:00
12:51 AM,55.4,51.8,88,30.08,1.5,Calm,Calm,-,N/A,,Overcast,0,2013-01-15 06:51:00
12:56 AM,55.9,52.0,87,30.07,1.5,Calm,Calm,-,N/A,,Overcast,0,2013-01-15 06:56:00
1:37 AM,57.2,53.6,88,30.06,2.0,ESE,3.5,-,0.01,,Overcast,110,2013-01-15 07:37:00
1:56 AM,57.9,53.1,84,30.05,2.0,ESE,4.6,-,0.01,,Haze,120,2013-01-15 07:56:00
2:04 AM,57.2,53.6,88,30.05,1.8,ESE,4.6,-,N/A,,Haze,120,2013-01-15 08:04:00
2:26 AM,57.2,53.6,88,30.05,1.2,SE,4.6,-,N/A,,Overcast,140,2013-01-15 08:26:00
2:36 AM,57.2,53.6,88,30.04,1.0,SE,3.5,-,N/A,,Overcast,140,2013-01-15 08:36:00
2:51 AM,57.2,55.4,94,30.04,0.8,SE,3.5,-,N/A,,Mist,140,2013-01-15 08:51:00
2:56 AM,57.9,55.0,90,30.04,0.8,SE,3.5,-,N/A,,Mist,140,2013-01-15 08:56:00
3:56 AM,61.0,57.0,87,30.03,0.8,SSE,4.6,-,N/A,,Mist,150,2013-01-15 09:56:00
4:16 AM,60.8,57.2,88,30.03,1.0,SE,4.6,-,N/A,,Mist,140,2013-01-15 10:16:00
4:38 AM,62.6,59.0,88,30.03,0.5,Calm,Calm,-,N/A,Fog,Fog,0,2013-01-15 10:38:00
4:56 AM,63.0,60.1,90,30.02,0.5,Calm,Calm,-,N/A,Fog,Fog,0,2013-01-15 10:56:00
5:18 AM,64.4,60.8,88,30.03,0.2,SSE,3.5,-,N/A,Fog,Fog,150,2013-01-15 11:18:00
5:33 AM,64.4,60.8,88,30.03,0.5,Calm,Calm,-,N/A,Fog,Fog,0,2013-01-15 11:33:00
5:40 AM,64.4,60.8,88,30.03,1.2,South,3.5,-,N/A,,Overcast,180,2013-01-15 11:40:00
5:45 AM,64.4,60.8,88,30.03,2.0,South,3.5,-,N/A,,Overcast,180,2013-01-15 11:45:00
5:56 AM,66.0,62.1,87,30.02,3.0,South,3.5,-,N/A,,Overcast,170,2013-01-15 11:56:00
6:43 AM,66.2,62.6,88,30.05,4.0,SSE,3.5,-,0.00,,Overcast,160,2013-01-15 12:43:00
6:56 AM,68.0,64.0,87,30.04,4.0,South,3.5,-,0.00,,Overcast,170,2013-01-15 12:56:00
7:22 AM,69.8,64.4,83,30.05,3.0,South,4.6,-,N/A,,Haze,170,2013-01-15 13:22:00
7:47 AM,69.8,64.4,83,30.05,3.0,South,4.6,-,N/A,,Haze,170,2013-01-15 13:47:00
7:56 AM,70.0,66.0,87,30.05,3.0,South,3.5,-,N/A,,Overcast,170,2013-01-15 13:56:00
8:17 AM,71.6,66.2,83,30.06,4.0,South,5.8,-,N/A,,Haze,190,2013-01-15 14:17:00
8:31 AM,71.6,66.2,83,30.05,5.0,South,5.8,-,N/A,,Haze,180,2013-01-15 14:31:00
8:56 AM,72.0,66.0,81,30.05,6.0,Variable,5.8,-,N/A,,Haze,0,2013-01-15 14:56:00
9:48 AM,73.4,66.2,78,30.05,7.0,SSW,5.8,-,N/A,,Overcast,200,2013-01-15 15:48:00
9:56 AM,73.0,66.9,81,30.04,8.0,SW,6.9,-,N/A,,Overcast,220,2013-01-15 15:56:00
10:56 AM,75.9,66.9,74,30.01,10.0,SSW,9.2,-,N/A,,Overcast,210,2013-01-15 16:56:00
11:06 AM,75.2,66.2,73,30.02,10.0,SSW,5.8,-,N/A,,Mostly Cloudy,200,2013-01-15 17:06:00
11:56 AM,80.1,66.9,64,29.98,10.0,SSW,8.1,-,0.00,,Mostly Cloudy,210,2013-01-15 17:56:00
12:22 PM,78.8,66.2,65,29.98,10.0,SSW,9.2,16.1,N/A,,Mostly Cloudy,200,2013-01-15 18:22:00
12:29 PM,78.8,66.2,65,29.98,10.0,SSW,11.5,19.6,N/A,,Overcast,200,2013-01-15 18:29:00
12:56 PM,81.0,64.9,58,29.96,10.0,SW,11.5,18.4,N/A,,Mostly Cloudy,220,2013-01-15 18:56:00
1:05 PM,80.6,66.2,61,29.97,10.0,Variable,5.8,-,N/A,,Mostly Cloudy,0,2013-01-15 19:05:00
1:12 PM,80.6,66.2,61,29.97,10.0,Variable,6.9,16.1,N/A,,Mostly Cloudy,0,2013-01-15 19:12:00
1:52 PM,75.2,66.2,73,29.97,2.5,SW,9.2,16.1,0.02,Rain,Rain,220,2013-01-15 19:52:00
1:56 PM,75.0,68.0,79,29.96,1.8,SSW,9.2,16.1,0.03,Rain,Rain,210,2013-01-15 19:56:00
2:01 PM,75.2,68.0,78,29.97,3.0,SSW,6.9,-,0.00,Rain,Light Rain,210,2013-01-15 20:01:00
2:13 PM,75.2,69.8,83,29.97,9.0,SW,6.9,-,0.00,,Overcast,230,2013-01-15 20:13:00
2:56 PM,75.9,68.0,76,29.97,10.0,SSW,4.6,-,0.00,,Overcast,200,2013-01-15 20:56:00
3:01 PM,75.2,68.0,78,29.98,10.0,Variable,5.8,-,N/A,,Overcast,0,2013-01-15 21:01:00
3:32 PM,75.2,66.2,73,29.98,10.0,SW,6.9,18.4,N/A,,Mostly Cloudy,220,2013-01-15 21:32:00
3:56 PM,75.0,66.9,76,29.98,10.0,Variable,5.8,-,N/A,,Overcast,0,2013-01-15 21:56:00
4:26 PM,75.2,66.2,73,30.00,10.0,Variable,3.5,-,N/A,,Overcast,0,2013-01-15 22:26:00
4:40 PM,73.4,66.2,78,30.00,8.0,SW,4.6,-,0.00,Rain,Light Rain,220,2013-01-15 22:40:00
4:49 PM,73.4,66.2,78,30.00,2.5,Calm,Calm,-,0.02,Rain,Light Rain,0,2013-01-15 22:49:00
4:53 PM,73.4,66.2,78,29.99,1.2,South,5.8,-,0.07,Rain,Heavy Rain,190,2013-01-15 22:53:00
4:56 PM,73.0,66.9,81,29.99,0.8,Variable,3.5,-,0.16,Rain,Heavy Rain,0,2013-01-15 22:56:00
5:12 PM,71.6,66.2,83,29.99,1.2,WSW,3.5,-,0.26,Rain,Light Rain,250,2013-01-15 23:12:00
5:14 PM,71.6,66.2,83,30.00,2.0,West,5.8,-,0.27,Rain,Light Rain,260,2013-01-15 23:14:00
5:16 PM,71.6,66.2,83,30.00,4.0,SW,3.5,-,0.27,Rain,Light Rain,220,2013-01-15 23:16:00
5:23 PM,71.6,66.2,83,29.99,8.0,Calm,Calm,-,0.27,Rain,Light Rain,0,2013-01-15 23:23:00
5:31 PM,71.6,66.2,83,30.00,10.0,West,4.6,-,0.27,,Overcast,270,2013-01-15 23:31:00
5:56 PM,73.0,66.9,81,29.98,7.0,Variable,4.6,-,0.27,,Overcast,0,2013-01-15 23:56:00
6:05 PM,73.4,66.2,78,29.99,7.0,Variable,3.5,-,N/A,,Overcast,0,2013-01-16 00:05:00
6:27 PM,73.4,66.2,78,29.99,7.0,Variable,4.6,-,N/A,,Overcast,0,2013-01-16 00:27:00
6:56 PM,73.0,66.9,81,29.98,7.0,Variable,3.5,-,N/A,,Overcast,0,2013-01-16 00:56:00
7:56 PM,73.0,66.9,81,29.96,7.0,SSW,5.8,-,0.00,,Overcast,200,2013-01-16 01:56:00
8:56 PM,73.0,66.9,81,29.96,7.0,South,4.6,-,N/A,,Overcast,190,2013-01-16 02:56:00
9:56 PM,73.0,66.0,79,29.95,8.0,South,5.8,-,N/A,,Overcast,190,2013-01-16 03:56:00
10:54 PM,71.6,66.2,83,29.95,2.5,Variable,4.6,-,0.03,Rain,Rain,0,2013-01-16 04:54:00
10:56 PM,72.0,66.9,84,29.94,2.5,South,6.9,-,0.03,Rain,Light Rain,190,2013-01-16 04:56:00
11:03 PM,71.6,66.2,83,29.95,5.0,Variable,5.8,-,0.01,Rain,Light Rain,0,2013-01-16 05:03:00
11:10 PM,71.6,66.2,83,29.95,7.0,South,5.8,-,0.01,,Overcast,190,2013-01-16 05:10:00
11:26 PM,71.6,66.2,83,29.95,3.0,Variable,5.8,-,0.04,Rain,Light Rain,0,2013-01-16 05:26:00
11:32 PM,71.6,66.2,83,29.94,1.8,Variable,6.9,-,0.05,Rain,Heavy Rain,0,2013-01-16 05:32:00
11:35 PM,71.6,66.2,83,29.94,2.0,Variable,4.6,-,0.05,Rain,Light Rain,0,2013-01-16 05:35:00
11:43 PM,71.6,66.2,83,29.94,6.0,SSW,5.8,-,0.05,Rain,Light Rain,210,2013-01-16 05:43:00
11:56 PM,72.0,66.0,81,29.94,10.0,SW,6.9,18.4,0.06,,Overcast,220,2013-01-16 05:56:00